Location: Austin
(30.3000°N, 97.7500°W)
Time: 11:13:18
(UTC-05:00)

SL-4 R/B - Pass Details

Date: 26 May 2023
Orbit: 421 x 634 km, 51.6° (Epoch: 31 May)

Event Time Altitude Azimuth Distance (km) Brightness Sun altitude
Rises 22:04:49 0° 254° (WSW) 2,450 5.8 -19.0°
Reaches altitude 10° 22:07:23 10° 272° (W) 1,550 5.0 -19.4°
Maximum altitude 22:09:59 20° 322° (NW) 1,067 4.4 -19.8°
Drops below altitude 10° 22:12:33 10° 11° (N) 1,512 4.6 -20.3°
Sets 22:15:02 0° 30° (NNE) 2,370 5.4 -20.7°
